Flag for U.S.A. Weather past 2 weeks in Lansing, Michigan, U.S.A.

Now
74 °F

Scattered clouds.


Feels Like: 77 °F
Forecast: 53 / 72 °F
Wind: 9 mph from Southwest

Location: Capital City Airport

Current Time: Jul 30, 2014 at 4:03:38 PM

Latest Report: Jul 30, 2014 at 2:53 PM


Visibility: 10 mi

Pressure: 29.99 "Hg

Humidity: 53%

Dew point: 56 °F

Location of LansingLocation

Historic Weather in Lansing — Graph

°F

Lansing temperature yesterday

Maximum temperature yesterday: 72 °F (at 2:53 PM)
Minimum temperature yesterday: 49 °F (at 5:53 AM)
Average temperature yesterday: 61 °F

Past Weeks' High & Low Weather Summary

 TemperatureHumidityPressure
High84 °F (Jul 21, 5:53 PM)97% (Jul 27, 7:53 AM)30.23 "Hg (Jul 27, 7:53 AM)
Low49 °F (Jul 29, 5:53 AM)39% (Jul 17, 5:53 PM)29.60 "Hg (Jul 27, 4:53 PM)
Average66 °F71%30.01 "Hg
* Reported Jul 15 2:53 PM — Jul 30 2:53 PM, Lansing, Weather by CustomWeather, © 2014

Note: Actual official high and low records may vary slightly from our data, if they occured in-between our weather recording intervals... More about our weather records

Advertising

Lansing weather history for previous 24 hours

 ConditionsComfort  
Time TempWeatherWind HumidityBarometerVisibility
2:53 PM
Jul 30
74 °FScattered clouds.9 mph53%29.99 "Hg10 mi
1:53 PM71 °FPartly sunny.5 mph61%30.00 "Hg10 mi
12:53 PM69 °FBroken clouds.5 mph63%30.02 "Hg10 mi
11:53 AM68 °FPartly sunny.No wind65%30.02 "Hg10 mi
10:53 AM65 °FScattered clouds.No wind76%30.02 "Hg9 mi
9:53 AM62 °FMore clouds than sun.No wind83%30.02 "Hg7 mi
9:04 AM59 °FFog.No wind90%30.02 "Hg4 mi
8:52 AM59 °FFog.3 mph93%30.01 "Hg3 mi
8:01 AM57 °FFog.5 mph93%30.01 "Hg1 mi
7:01 AM55 °FFog.No wind93%30.00 "Hg2 mi
5:53 AM55 °FFog.3 mph93%29.98 "Hg4 mi
4:53 AM55 °FFog.No wind93%29.97 "Hg4 mi
3:53 AM56 °FFog.3 mph93%29.98 "Hg6 mi
2:53 AM57 °FClear.5 mph90%29.97 "Hg8 mi
1:53 AM58 °FPassing clouds.6 mph87%29.98 "Hg9 mi
12:53 AM59 °FClear.7 mph84%29.98 "Hg10 mi
11:53 PM
Jul 29
60 °FClear.No wind80%29.98 "Hg10 mi
10:53 PM62 °FClear.No wind75%29.98 "Hg10 mi
9:53 PM63 °FSunny.6 mph73%29.97 "Hg10 mi
8:53 PM66 °FPassing clouds.6 mph68%29.97 "Hg10 mi
7:53 PM69 °FSunny.10 mph63%29.96 "Hg10 mi
6:53 PM67 °FMore clouds than sun.No wind73%29.96 "Hg10 mi
5:53 PM69 °FLight rain. Partly sunny.5 mph66%29.96 "Hg10 mi
4:53 PM72 °FLight rain. Partly sunny.10 mph53%29.96 "Hg10 mi
Weather by CustomWeather, © 2014

See weather overviewHow to use our weather pages